Weather History for Morgantown, WV

Change the Weather History Date:

Wednesday, January 28, 2009

  Actual Average Record
Temperature  
Mean Temperature 32 °F 32 °F  
Max Temperature 42 °F 40 °F 64 °F (2002)
Min Temperature 22 °F 24 °F -9 °F (2014)
Degree Days  
Heating Degree Days 33 33  
Month to date heating degree days 1049 946  
Since 1 July heating degree days 3030 2930  
Cooling Degree Days 0 0  
Month to date cooling degree days 0 0  
Year to date cooling degree days 0 0  
Moisture  
Dew Point 32 °F    
Average Humidity 87    
Maximum Humidity 100    
Minimum Humidity 74    
Precipitation  
Precipitation 0.66 in 0.10 in 0.73 in (1951)
Month to date precipitation 2.78 2.54  
Year to date precipitation 2.78 2.54  
Snow  
Snow 0.00 in - - ()
Month to date snowfall 0.0  
Snow Depth 0.00 in    
Sea Level Pressure  
Sea Level Pressure 29.75 in    
Wind  
Wind Speed 8 mph (SW)    
Max Wind Speed 17 mph    
Max Gust Speed 30 mph    
Visibility 5 miles    
Events Fog , Rain , Snow    
T = Trace of Precipitation, MM = Missing Value Source: NWS Daily Summary

Daily Weather History Graph

Daily Weather History Graph

Search for Another Location

Airport:

Trip Planner

Search our weather history database for the weather conditions in past years. The results will help you decide how hot, cold, wet, or windy it might be!

Date:

Astronomy

Jan. 28, 2009 Rise Set
Actual Time 7:30 AM EST 5:35 PM EST
Civil Twilight 7:02 AM EST 6:03 PM EST
Nautical Twilight 6:29 AM EST 6:36 PM EST
Astronomical Twilight 5:57 AM EST 7:08 PM EST
Moon 8:34 AM EST (1/28) 8:08 PM EST (1/28)
Length of Visible Light 11h 01m
Length of Day
10h 04m
Waxing Crescent, 5% of the Moon is Illuminated
Jan 28
Waxing Crescent
Feb 2
First Quarter
Feb 9
Full
Feb 16
Last Quarter
Feb 24
New

Hourly Weather History & Observations

Time (EST) Temp. Windchill Dew Point Humidity Pressure Visibility Wind Dir Wind Speed Gust Speed Precip Events Conditions
12:53 AM 34.0 °F 29.8 °F 32.0 °F 92% 29.96 in 6.0 mi ESE 4.6 mph - 0.01 in   Overcast
1:53 AM 34.0 °F 28.0 °F 32.0 °F 92% 29.93 in 8.0 mi ESE 6.9 mph - 0.04 in Rain Light Rain
2:53 AM 35.1 °F 30.1 °F 34.0 °F 96% 29.90 in 6.0 mi ESE 5.8 mph - 0.04 in Rain Light Rain
3:53 AM 37.9 °F 32.1 °F 36.0 °F 93% 29.85 in 6.0 mi SSE 8.1 mph - 0.04 in Rain Light Rain
4:53 AM 39.0 °F 33.4 °F 37.9 °F 96% 29.80 in 6.0 mi SSE 8.1 mph - 0.06 in Rain Light Rain
5:00 AM 39.2 °F 33.0 °F 37.4 °F 93% 29.76 in 6.0 mi SSE 9.2 mph - 0.00 in Rain Light Rain
5:53 AM 39.9 °F 33.9 °F 39.0 °F 97% 29.75 in 4.0 mi SE 9.2 mph - 0.06 in Rain Light Rain
6:53 AM 39.0 °F - 37.9 °F 96% 29.70 in 6.0 mi Calm Calm - 0.04 in Rain Light Rain
7:53 AM 39.0 °F 35.7 °F 37.9 °F 96% 29.65 in 10.0 mi ESE 4.6 mph - 0.01 in   Overcast
8:53 AM 41.0 °F 39.0 °F 37.9 °F 89% 29.60 in 10.0 mi SSE 3.5 mph - N/A   Overcast
9:53 AM 39.0 °F - 37.0 °F 93% 29.59 in 10.0 mi Calm Calm - N/A   Overcast
10:30 AM 37.4 °F 34.9 °F 35.6 °F 93% 29.57 in 1.8 mi South 3.5 mph - 0.00 in Rain Light Rain
10:44 AM 35.6 °F 32.8 °F 35.6 °F 100% 29.57 in 0.8 mi South 3.5 mph - 0.01 in Rain Light Rain
10:53 AM 36.0 °F 33.3 °F 36.0 °F 100% 29.60 in 0.8 mi South 3.5 mph - 0.03 in Rain Rain
11:12 AM 37.4 °F 33.8 °F 37.4 °F 100% 29.59 in 0.8 mi WNW 4.6 mph - 0.04 in Rain Rain
11:26 AM 37.4 °F 34.9 °F 37.4 °F 100% 29.59 in 0.2 mi NW 3.5 mph - 0.08 in Fog , Rain Rain
11:35 AM 37.4 °F - 37.4 °F 100% 29.60 in 1.0 mi Calm Calm - 0.09 in Rain Light Rain
11:51 AM 37.4 °F - 37.4 °F 100% 29.60 in 3.0 mi Calm Calm - 0.11 in Rain Light Rain
11:52 AM 37.9 °F - 37.9 °F 100% 29.62 in 3.0 mi Calm Calm - 0.11 in Rain Light Rain
12:23 PM 37.4 °F 32.8 °F 37.4 °F 100% 29.61 in 3.0 mi SW 5.8 mph - 0.02 in Rain Rain
12:34 PM 37.4 °F 32.1 °F 37.4 °F 100% 29.59 in 2.0 mi SSE 6.9 mph - 0.04 in Rain Rain
12:39 PM 37.4 °F 32.8 °F 37.4 °F 100% 29.58 in 2.0 mi SSE 5.8 mph - 0.05 in Rain Rain
12:49 PM 37.0 °F 31.0 °F 37.0 °F 100% 29.58 in 3.0 mi SSE 8.1 mph - 0.06 in Rain Light Rain
12:53 PM 37.4 °F 31.4 °F 37.4 °F 100% 29.55 in 3.0 mi SSE 8.1 mph - 0.00 in Rain Light Rain
1:31 PM 37.4 °F 31.4 °F 37.4 °F 100% 29.58 in 6.0 mi SSW 8.1 mph - 0.04 in Rain Light Rain
1:44 PM 37.4 °F 28.2 °F 37.4 °F 100% 29.59 in 5.0 mi SW 16.1 mph 24.2 mph 0.07 in Rain Rain
1:51 PM 37.4 °F 29.8 °F 37.4 °F 100% 29.60 in 4.0 mi SW 11.5 mph 24.2 mph 0.08 in Rain Rain
1:53 PM 37.9 °F 28.9 °F 37.0 °F 97% 29.62 in 4.0 mi SW 16.1 mph 29.9 mph 0.09 in Rain Rain
2:30 PM 33.8 °F 24.3 °F 33.8 °F 100% 29.65 in 4.0 mi WSW 13.8 mph 26.5 mph 0.06 in Rain Light Rain
2:40 PM 33.8 °F 26.4 °F 32.0 °F 93% 29.67 in 2.0 mi WSW 9.2 mph 26.5 mph 0.07 in Snow Light Snow
2:44 PM 33.8 °F 26.4 °F 32.0 °F 93% 29.67 in 3.0 mi West 9.2 mph 20.7 mph 0.07 in Snow Light Snow
2:53 PM 32.0 °F 22.5 °F 30.0 °F 92% 29.73 in 3.0 mi WSW 12.7 mph 24.2 mph 0.07 in Snow Light Snow
3:07 PM 33.8 °F 27.0 °F 30.2 °F 87% 29.70 in 2.0 mi WSW 8.1 mph 18.4 mph 0.00 in Snow Light Snow
3:36 PM 32.0 °F 22.1 °F 30.2 °F 93% 29.76 in 2.0 mi SW 13.8 mph 25.3 mph 0.00 in Snow Light Snow
3:44 PM 32.0 °F 22.1 °F 30.2 °F 93% 29.77 in 5.0 mi SW 13.8 mph 25.3 mph 0.00 in   Overcast
3:49 PM 32.0 °F 22.1 °F 30.2 °F 93% 29.78 in 2.5 mi SW 13.8 mph 25.3 mph 0.00 in Snow Light Snow
3:53 PM 32.0 °F 21.2 °F 30.0 °F 92% 29.81 in 2.0 mi SW 16.1 mph 29.9 mph 0.00 in Snow Light Snow
4:02 PM 30.2 °F 19.8 °F 28.4 °F 93% 29.80 in 7.0 mi West 13.8 mph 29.9 mph 0.00 in   Overcast
4:53 PM 30.0 °F 20.5 °F 25.0 °F 82% 29.90 in 10.0 mi West 11.5 mph 21.9 mph 0.00 in   Overcast
5:53 PM 27.0 °F 17.3 °F 21.0 °F 78% 29.94 in 10.0 mi West 10.4 mph 24.2 mph 0.00 in   Overcast
6:53 PM 26.1 °F 16.8 °F 21.0 °F 81% 29.97 in 9.0 mi SW 9.2 mph - N/A   Overcast
7:53 PM 25.0 °F 14.2 °F 18.0 °F 75% 30.00 in 10.0 mi West 11.5 mph 18.4 mph N/A   Overcast
8:53 PM 25.0 °F 16.3 °F 19.9 °F 81% 30.01 in 9.0 mi West 8.1 mph - 0.00 in Snow Light Snow
9:04 PM 24.8 °F 16.1 °F 19.4 °F 80% 29.98 in 9.0 mi West 8.1 mph - 0.00 in Snow Light Snow
9:53 PM 24.1 °F 14.4 °F 18.0 °F 77% 30.03 in 9.0 mi WNW 9.2 mph - 0.00 in Snow Light Snow
10:03 PM 24.8 °F 13.4 °F 19.4 °F 80% 29.99 in 8.0 mi West 12.7 mph 20.7 mph 0.00 in Snow Light Snow
10:49 PM 23.0 °F 11.1 °F 17.6 °F 80% 29.99 in 6.0 mi West 12.7 mph 20.7 mph 0.00 in Snow Light Snow
10:53 PM 23.0 °F 11.1 °F 17.1 °F 78% 30.04 in 6.0 mi West 12.7 mph 20.7 mph 0.00 in Snow Light Snow
11:53 PM 21.9 °F 12.5 °F 17.1 °F 82% 30.04 in 10.0 mi WSW 8.1 mph - 0.00 in   Overcast